SILO ALERT LOG


Silo ID Alert Type Alert Message Silo Type Points Depth (mm) Strength Temperature (°C) Humidity (%) Height (mm) Volume (㎥) Weight (t) Flag Time
DJDJD01 Temperature 온도센서 측정값이 0도 미만 88 8391 3901 -0.9 80.8 -711 -86.247 0 0 2024-01-11 04:39:30.000
DJSAD17 Humidity 습도센서 측정값이 80% 초과 444 3136 4809 3 80.6 4443 442.505 279.752 0 2024-01-11 04:39:29.000
DJHNR03 Temperature 온도센서 상태 이상 호퍼 0 15500 0 -999 -999 -119 0 0 31 2024-01-11 04:39:24.000
DJHNR12 Humidity 습도센서 측정값이 80% 초과 호퍼 0 10500 0 -4 82.5 -120 0 0 31 2024-01-11 04:39:24.000
DJHNR12 Temperature 온도센서 측정값이 0도 미만 호퍼 0 10500 0 -4 82.5 -120 0 0 31 2024-01-11 04:39:24.000
DJSSD12 Temperature 온도센서 상태 이상 호퍼 0 11350 0 -999 -999 -120 0 0 31 2024-01-11 04:39:24.000
DJSAD03 Humidity 습도센서 측정값이 80% 초과 447 1655 6167 1.4 84.5 7124 294.915 186.446 0 2024-01-11 03:39:40.000
DJSAD02 Humidity 습도센서 측정값이 80% 초과 379 1132 4283 1.3 88.2 7647 316.582 200.143 11 2024-01-11 03:39:39.000
DJSAD01 Humidity 습도센서 측정값이 80% 초과 432 1494 7268 0.6 88.6 7285 301.603 190.674 0 2024-01-11 03:39:39.000
DJDJD03 Humidity 습도센서 측정값이 80% 초과 63 4695 5044 1.5 80.8 2984 361.631 228.623 0 2024-01-11 03:39:39.000
DJSAD08 Humidity 습도센서 측정값이 80% 초과 0 7700 3817 12.5 81.2 -120 -17.075 0 12 2024-01-11 03:39:37.000
DJSAD11 Humidity 습도센서 측정값이 80% 초과 332 1624 3266 0.8 80.5 5955 847.414 535.735 11 2024-01-11 03:39:35.000
DJSAD12 Humidity 습도센서 측정값이 80% 초과 0 7700 0 2.5 86.6 -120 -17.075 0 31 2024-01-11 03:39:33.000
DJSSD04 Temperature 온도센서 상태 이상 0 8200 0 -999 -999 -120 -16.702 0 31 2024-01-11 03:39:33.000
DJSSD01 Humidity 습도센서 측정값이 80% 초과 789 2571 4649 4.9 83.8 5508 766.683 484.697 0 2024-01-11 03:39:33.000
DJHNR01 Humidity 습도센서 측정값이 80% 초과 호퍼 471 4307 5019 3.4 99.9 11072 472.84 298.93 13 2024-01-11 03:39:33.000
DJSSD11 Temperature 온도센서 측정값이 0도 미만 호퍼 446 7412 147 -3.7 81.8 3817 28.416 15.487 11 2024-01-11 03:39:32.000
DJSSD11 Humidity 습도센서 측정값이 80% 초과 호퍼 446 7412 147 -3.7 81.8 3817 28.416 15.487 11 2024-01-11 03:39:32.000
DJHNR13 Temperature 온도센서 측정값이 0도 미만 호퍼 420 2535 2622 -2 70.1 7844 115.263 72.869 11 2024-01-11 03:39:32.000
DJSSD05 Temperature 온도센서 측정값이 0도 미만 850 2541 5023 -45.4 43.7 5538 770.806 487.303 0 2024-01-11 03:39:32.000

[첫 페이지] [10011] [10012] [10013] [10014] 10015 [10016] [10017] [10018] [10019] [마지막 페이지]